Time,TemperatureF,DewpointF,PressureIn,WindDirection,WindDirectionDegrees,WindSpeedMPH,WindSpeedGustMPH,Humidity,HourlyPrecipIn,Conditions,Clouds,dailyrainin,SoftwareType,DateUTC
2013-03-29 00:00:00,47.5,36.0,30.00,West,268,0.0,5.0,64,0.00,,,0.00,weatherlink.com 1.10,2013-03-29 06:00:00,
2013-03-29 00:15:00,46.0,36.0,30.00,SSE,148,0.0,3.0,68,0.00,,,0.00,weatherlink.com 1.10,2013-03-29 06:15:00,
2013-03-29 00:30:00,45.4,35.0,30.00,SSE,152,3.0,5.0,68,0.00,,,0.00,weatherlink.com 1.10,2013-03-29 06:30:00,
2013-03-29 00:45:00,46.0,35.0,30.00,South,190,0.0,2.0,66,0.00,,,0.00,weatherlink.com 1.10,2013-03-29 06:45:00,
2013-03-29 01:00:00,45.3,35.0,30.00,NNE,29,3.0,5.0,68,0.00,,,0.00,weatherlink.com 1.10,2013-03-29 07:00:00,
2013-03-29 01:15:00,44.8,35.0,30.01,WNW,290,0.0,3.0,69,0.00,,,0.00,weatherlink.com 1.10,2013-03-29 07:15:00,
2013-03-29 01:30:00,45.0,35.0,30.01,SE,139,0.0,3.0,69,0.00,,,0.00,weatherlink.com 1.10,2013-03-29 07:30:00,
2013-03-29 01:45:00,44.5,35.0,30.00,South,178,0.0,1.0,69,0.00,,,0.00,weatherlink.com 1.10,2013-03-29 07:45:00,
2013-03-29 02:00:00,44.0,35.0,30.00,South,188,0.0,0.0,70,0.00,,,0.00,weatherlink.com 1.10,2013-03-29 08:00:00,
2013-03-29 02:16:00,43.2,34.0,30.01,South,180,0.0,3.0,71,0.00,,,0.00,weatherlink.com 1.10,2013-03-29 08:16:00,
2013-03-29 02:31:00,43.4,34.0,30.00,South,180,0.0,0.0,70,0.00,,,0.00,weatherlink.com 1.10,2013-03-29 08:31:00,
2013-03-29 02:46:00,43.0,34.0,30.00,NE,35,1.0,3.0,71,0.00,,,0.00,weatherlink.com 1.10,2013-03-29 08:46:00,
2013-03-29 03:01:00,42.4,34.0,30.01,East,86,0.0,0.0,72,0.00,,,0.00,weatherlink.com 1.10,2013-03-29 09:01:00,
2013-03-29 03:16:00,42.0,34.0,30.01,SSE,154,0.0,0.0,72,0.00,,,0.00,weatherlink.com 1.10,2013-03-29 09:16:00,
2013-03-29 03:31:00,41.7,34.0,30.01,South,189,0.0,0.0,73,0.00,,,0.00,weatherlink.com 1.10,2013-03-29 09:31:00,
2013-03-29 03:46:00,41.4,33.0,30.01,SW,221,0.0,1.0,73,0.00,,,0.00,weatherlink.com 1.10,2013-03-29 09:46:00,
2013-03-29 04:46:00,42.1,34.0,30.01,SE,124,2.0,5.0,72,0.00,,,0.00,weatherlink.com 1.10,2013-03-29 10:46:00,
2013-03-29 05:16:00,45.0,35.0,30.01,SSE,163,5.0,7.0,67,0.00,,,0.00,weatherlink.com 1.10,2013-03-29 11:16:00,
2013-03-29 06:01:00,42.0,34.0,30.01,SW,229,0.0,0.0,73,0.00,,,0.00,weatherlink.com 1.10,2013-03-29 12:01:00,
2013-03-29 06:31:00,41.0,34.0,30.02,WSW,238,0.0,2.0,75,0.00,,,0.00,weatherlink.com 1.10,2013-03-29 12:31:00,
2013-03-29 07:16:00,44.2,34.0,30.02,East,92,2.0,10.0,68,0.00,,,0.00,weatherlink.com 1.10,2013-03-29 13:16:00,
2013-03-29 07:31:00,42.7,34.0,30.03,NNW,335,1.0,5.0,71,0.00,,,0.00,weatherlink.com 1.10,2013-03-29 13:31:00,
2013-03-29 08:16:00,42.7,35.0,30.04,SE,144,0.0,3.0,73,0.00,,,0.00,weatherlink.com 1.10,2013-03-29 14:16:00,
2013-03-29 08:31:00,42.5,35.0,30.04,NW,315,5.0,5.0,75,0.00,,,0.00,weatherlink.com 1.10,2013-03-29 14:31:00,
2013-03-29 08:46:00,43.0,35.0,30.04,East,87,0.0,0.0,73,0.00,,,0.00,weatherlink.com 1.10,2013-03-29 14:46:00,
2013-03-29 09:01:00,44.3,36.0,30.04,WSW,240,0.0,2.0,73,0.00,,,0.00,weatherlink.com 1.10,2013-03-29 15:01:00,
2013-03-29 09:16:00,45.3,36.0,30.03,South,170,1.0,1.0,71,0.00,,,0.00,weatherlink.com 1.10,2013-03-29 15:16:00,
2013-03-29 09:31:00,47.2,36.0,30.04,SSE,159,3.0,3.0,66,0.00,,,0.00,weatherlink.com 1.10,2013-03-29 15:31:00,
2013-03-29 09:46:00,48.5,36.0,30.04,West,263,0.0,5.0,63,0.00,,,0.00,weatherlink.com 1.10,2013-03-29 15:46:00,
2013-03-29 10:01:00,49.4,36.0,30.03,SSW,201,4.0,8.0,60,0.00,,,0.00,weatherlink.com 1.10,2013-03-29 16:01:00,
2013-03-29 10:31:00,51.9,36.0,30.04,WSW,250,5.0,10.0,54,0.00,,,0.00,weatherlink.com 1.10,2013-03-29 16:31:00,
2013-03-29 10:46:00,52.1,35.0,30.04,SW,220,1.0,7.0,52,0.00,,,0.00,weatherlink.com 1.10,2013-03-29 16:46:00,
2013-03-29 11:02:00,51.8,34.0,30.04,SW,215,3.0,12.0,51,0.00,,,0.00,weatherlink.com 1.10,2013-03-29 17:02:00,
2013-03-29 11:16:00,52.0,34.0,30.04,WSW,252,7.0,11.0,50,0.00,,,0.00,weatherlink.com 1.10,2013-03-29 17:16:00,
2013-03-29 11:31:00,52.2,32.0,30.04,WSW,248,11.0,16.0,46,0.00,,,0.00,weatherlink.com 1.10,2013-03-29 17:31:00,
2013-03-29 11:46:00,52.4,32.0,30.05,WSW,244,8.0,13.0,46,0.00,,,0.00,weatherlink.com 1.10,2013-03-29 17:46:00,
2013-03-29 12:01:00,52.7,31.0,30.05,SW,234,5.0,10.0,44,0.00,,,0.00,weatherlink.com 1.10,2013-03-29 18:01:00,
2013-03-29 12:16:00,53.3,32.0,30.05,WSW,239,3.0,10.0,44,0.00,,,0.00,weatherlink.com 1.10,2013-03-29 18:16:00,
2013-03-29 12:32:00,54.2,32.0,30.05,WSW,248,2.0,9.0,43,0.00,,,0.00,weatherlink.com 1.10,2013-03-29 18:32:00,
2013-03-29 12:47:00,54.8,32.0,30.04,SSE,165,1.0,5.0,42,0.00,,,0.00,weatherlink.com 1.10,2013-03-29 18:47:00,
2013-03-29 13:02:00,55.1,31.0,30.04,SSW,193,0.0,8.0,40,0.00,,,0.00,weatherlink.com 1.10,2013-03-29 19:02:00,
2013-03-29 13:17:00,55.3,29.0,30.04,WSW,242,9.0,10.0,37,0.00,,,0.00,weatherlink.com 1.10,2013-03-29 19:17:00,
2013-03-29 13:32:00,56.0,29.0,30.03,SW,227,6.0,12.0,36,0.00,,,0.00,weatherlink.com 1.10,2013-03-29 19:32:00,
2013-03-29 13:47:00,57.9,30.0,30.02,SW,217,0.0,12.0,35,0.00,,,0.00,weatherlink.com 1.10,2013-03-29 19:47:00,
2013-03-29 14:02:00,58.3,28.0,30.02,WSW,258,11.0,11.0,32,0.00,,,0.00,weatherlink.com 1.10,2013-03-29 20:02:00,
2013-03-29 14:17:00,57.2,27.0,30.02,West,279,1.0,17.0,32,0.00,,,0.00,weatherlink.com 1.10,2013-03-29 20:17:00,
2013-03-29 14:32:00,56.3,27.0,30.02,WNW,284,11.0,15.0,32,0.00,,,0.00,weatherlink.com 1.10,2013-03-29 20:32:00,
2013-03-29 14:47:00,57.0,28.0,30.02,West,268,5.0,13.0,33,0.00,,,0.00,weatherlink.com 1.10,2013-03-29 20:47:00,
2013-03-29 15:02:00,57.1,29.0,30.02,South,178,0.0,10.0,34,0.00,,,0.00,weatherlink.com 1.10,2013-03-29 21:02:00,
2013-03-29 15:17:00,56.8,29.0,30.02,WSW,255,7.0,16.0,34,0.00,,,0.00,weatherlink.com 1.10,2013-03-29 21:17:00,
2013-03-29 15:32:00,57.0,28.0,30.02,WSW,251,11.0,15.0,33,0.00,,,0.00,weatherlink.com 1.10,2013-03-29 21:32:00,
2013-03-29 15:47:00,57.3,27.0,30.01,WSW,244,1.0,13.0,32,0.00,,,0.00,weatherlink.com 1.10,2013-03-29 21:47:00,
2013-03-29 16:02:00,57.1,28.0,30.01,WSW,258,2.0,14.0,33,0.00,,,0.00,weatherlink.com 1.10,2013-03-29 22:02:00,
2013-03-29 16:17:00,57.9,28.0,30.00,NW,314,10.0,12.0,32,0.00,,,0.00,weatherlink.com 1.10,2013-03-29 22:17:00,
2013-03-29 16:32:00,60.6,27.0,30.00,WNW,286,12.0,16.0,28,0.00,,,0.00,weatherlink.com 1.10,2013-03-29 22:32:00,
2013-03-29 16:47:00,60.5,27.0,30.01,West,263,14.0,17.0,28,0.00,,,0.00,weatherlink.com 1.10,2013-03-29 22:47:00,
2013-03-29 17:02:00,60.4,27.0,30.02,SW,228,4.0,16.0,28,0.00,,,0.00,weatherlink.com 1.10,2013-03-29 23:02:00,
2013-03-29 17:17:00,58.6,28.0,30.01,WSW,257,7.0,12.0,31,0.00,,,0.00,weatherlink.com 1.10,2013-03-29 23:17:00,
2013-03-29 17:32:00,58.3,26.0,30.01,WNW,296,4.0,13.0,29,0.00,,,0.00,weatherlink.com 1.10,2013-03-29 23:32:00,
2013-03-29 17:47:00,58.7,27.0,30.02,WSW,250,7.0,15.0,30,0.00,,,0.00,weatherlink.com 1.10,2013-03-29 23:47:00,
2013-03-29 18:03:00,58.7,27.0,30.02,WSW,240,10.0,15.0,30,0.00,,,0.00,weatherlink.com 1.10,2013-03-30 00:03:00,
2013-03-29 18:17:00,57.3,27.0,30.02,SW,236,10.0,15.0,31,0.00,,,0.00,weatherlink.com 1.10,2013-03-30 00:17:00,
2013-03-29 18:32:00,56.5,27.0,30.02,WSW,255,7.0,14.0,32,0.00,,,0.00,weatherlink.com 1.10,2013-03-30 00:32:00,
2013-03-29 18:47:00,56.4,27.0,30.03,WNW,287,10.0,16.0,32,0.00,,,0.00,weatherlink.com 1.10,2013-03-30 00:47:00,
2013-03-29 19:02:00,55.9,26.0,30.03,WSW,244,4.0,13.0,32,0.00,,,0.00,weatherlink.com 1.10,2013-03-30 01:02:00,
2013-03-29 19:17:00,54.6,27.0,30.03,WSW,250,4.0,7.0,34,0.00,,,0.00,weatherlink.com 1.10,2013-03-30 01:17:00,
2013-03-29 19:32:00,52.3,27.0,30.03,WSW,251,4.0,9.0,37,0.00,,,0.00,weatherlink.com 1.10,2013-03-30 01:32:00,
2013-03-29 19:47:00,51.5,26.0,30.04,WSW,254,4.0,10.0,38,0.00,,,0.00,weatherlink.com 1.10,2013-03-30 01:47:00,
2013-03-29 20:02:00,50.8,27.0,30.04,WSW,242,0.0,7.0,40,0.00,,,0.00,weatherlink.com 1.10,2013-03-30 02:02:00,
2013-03-29 20:17:00,49.6,27.0,30.04,WSW,238,4.0,7.0,42,0.00,,,0.00,weatherlink.com 1.10,2013-03-30 02:17:00,
2013-03-29 20:32:00,48.7,27.0,30.05,WSW,249,1.0,6.0,44,0.00,,,0.00,weatherlink.com 1.10,2013-03-30 02:32:00,
2013-03-29 20:47:00,48.5,27.0,30.05,WSW,254,0.0,1.0,44,0.00,,,0.00,weatherlink.com 1.10,2013-03-30 02:47:00,
2013-03-29 21:02:00,48.2,28.0,30.06,WSW,242,1.0,4.0,46,0.00,,,0.00,weatherlink.com 1.10,2013-03-30 03:02:00,
2013-03-29 21:17:00,48.5,28.0,30.07,WSW,249,1.0,6.0,46,0.00,,,0.00,weatherlink.com 1.10,2013-03-30 03:17:00,
2013-03-29 21:32:00,48.6,29.0,30.07,WSW,253,1.0,5.0,47,0.00,,,0.00,weatherlink.com 1.10,2013-03-30 03:32:00,
2013-03-29 21:47:00,48.4,29.0,30.07,WSW,248,2.0,5.0,48,0.00,,,0.00,weatherlink.com 1.10,2013-03-30 03:47:00,
2013-03-29 22:02:00,48.3,29.0,30.08,WSW,241,3.0,8.0,48,0.00,,,0.00,weatherlink.com 1.10,2013-03-30 04:02:00,
2013-03-29 22:17:00,47.9,29.0,30.08,WSW,249,0.0,0.0,49,0.00,,,0.00,weatherlink.com 1.10,2013-03-30 04:17:00,
2013-03-29 22:32:00,47.6,30.0,30.09,West,279,1.0,4.0,50,0.00,,,0.00,weatherlink.com 1.10,2013-03-30 04:32:00,
2013-03-29 22:47:00,46.6,28.0,30.09,NNW,340,4.0,6.0,49,0.00,,,0.00,weatherlink.com 1.10,2013-03-30 04:47:00,
2013-03-29 23:02:00,44.3,28.0,30.10,North,11,3.0,5.0,53,0.00,,,0.00,weatherlink.com 1.10,2013-03-30 05:02:00,
2013-03-29 23:17:00,43.2,28.0,30.10,NE,40,0.0,3.0,56,0.00,,,0.00,weatherlink.com 1.10,2013-03-30 05:17:00,
2013-03-29 23:32:00,40.8,27.0,30.10,West,271,0.0,4.0,58,0.00,,,0.00,weatherlink.com 1.10,2013-03-30 05:32:00,
2013-03-29 23:47:00,39.6,28.0,30.10,North,5,0.0,2.0,63,0.00,,,0.00,weatherlink.com 1.10,2013-03-30 05:47:00,